This demonstration page uses our WeatherBlox Daily Observations layout. Learn more.

Left ArrowRight Arrow

Hourly Observations for August 5, 2022

Temp ( °F °C ) Dew Point ( °F °C ) Humidity (%) Winds ( mph kmh ) Pressure ( in mb ) Visibility ( mi km ) Precip ( " mm )
12:52 am 00:52 Mostly Cloudy 74 23.3 62 16.7 67 67 SSE 8 13 30.00 1016 10 16 0.00 0.00
1:52 am 01:52 Mostly Cloudy 73 22.8 61 16.1 66 66 SSE 9 15 29.99 1016 10 16 0.00 0.00
2:52 am 02:52 Mostly Cloudy 72 22.2 61 16.1 68 68 SSE 8 13 29.99 1016 10 16 0.00 0.00
3:52 am 03:52 Mostly Cloudy 71 21.7 61 16.1 71 71 SSE 8 13 30.01 1016 10 16 0.00 0.00
4:52 am 04:52 Mostly Clear 70 21.1 62 16.7 76 76 SE 6 9 29.99 1016 10 16 0.00 0.00
5:52 am 05:52 Mostly Clear 70 21.1 62 16.7 76 76 SE 9 15 29.98 1015 10 16 0.00 0.00
6:52 am 06:52 Mostly Sunny 69 20.6 62 16.7 78 78 SSE 10 17 29.99 1016 10 16 0.00 0.00
7:52 am 07:52 Mostly Sunny 71 21.7 62 16.7 73 73 SSE 10 17 29.99 1016 10 16 0.00 0.00
8:52 am 08:52 Mostly Cloudy 75 23.9 63 17.2 66 66 SSE 6 9 30.00 1016 10 16 0.00 0.00
9:45 am 09:45 Mostly Sunny 79 26.1 66 18.9 65 65 SSE 12 19 29.97 1015 10 16 0.00 0.00
9:52 am 09:52 Mostly Sunny 79 26.1 66 18.9 65 65 SSE 12 19 29.98 1015 10 16 0.00 0.00
10:52 am 10:52 Mostly Sunny 84 28.9 70 21.1 63 63 SSE 16 26 29.97 1015 10 16 0.00 0.00
11:52 am 11:52 Mostly Sunny 87 30.6 71 21.7 59 59 SSE 16 26 29.97 1015 10 16 0.00 0.00
12:52 pm 12:52 Mostly Sunny 88 31.1 72 22.2 59 59 SSE 12 19 29.96 1015 10 16 0.00 0.00
1:52 pm 13:52 Mostly Sunny 92 33.3 71 21.7 51 51 S 15 24 29.95 1014 10 16 0.00 0.00
2:52 pm 14:52 Mostly Sunny 92 33.3 72 22.2 52 52 S 12 19 29.93 1014 10 16 0.00 0.00
3:52 pm 15:52 Mostly Sunny 93 33.9 70 21.1 47 47 ESE 16 26 29.91 1013 10 16 0.00 0.00
4:52 pm 16:52 Mostly Sunny 93 33.9 69 20.6 46 46 SE 16 26 29.90 1012 10 16 0.00 0.00
5:52 pm 17:52 Mostly Sunny 92 33.3 70 21.1 49 49 SSE 18 30 29.89 1012 10 16 0.00 0.00
6:52 pm 18:52 Partly Cloudy 91 32.8 70 21.1 50 50 SE 17 28 29.87 1012 10 16 0.00 0.00
7:52 pm 19:52 Partly Cloudy 88 31.1 70 21.1 55 55 SSE 16 26 29.86 1011 10 16 0.00 0.00
8:52 pm 20:52 Partly Cloudy 86 30 72 22.2 63 63 SSE 16 26 29.86 1011 10 16 0.00 0.00
9:52 pm 21:52 Mostly Cloudy 84 28.9 72 22.2 67 67 SSE 16 26 29.88 1012 10 16 0.00 0.00
10:52 pm 22:52 Mostly Cloudy 82 27.8 72 22.2 72 72 SSE 13 20 29.88 1012 10 16 0.00 0.00
11:52 pm 23:52 Mostly Cloudy 81 27.2 72 22.2 74 74 SSE 13 20 29.90 1012 10 16 0.00 0.00

Powered by AerisWeather